Lapse_Rate
6.9 6.6 6.6 6.5 6.3 6.4 6.4 6.5 6.1 5.9 5.9 5.7 6.0 5.5 5.6 5.3 5.1 5.2 5.1 5.2 5.3 5.8 6.1 5.9 6.4 6.5 7.2 7.2 7.1 6.8 7.1 6.8 7.0 7.2 7.5 7.8 7.8 7.7 7.9 7.9 7.9 8.0 7.6 7.0 6.8 6.5 6.4 7.3 7.5 7.3 7.6 7.7 7.6 7.4
6.8 6.6 6.5 6.6 6.6 6.6 6.6 6.2 5.9 5.6 5.6 5.8 6.0 6.5 6.1 5.4 4.9 5.2 4.9 5.2 5.6 5.8 6.2 6.3 6.2 6.3 6.9 7.7 7.3 6.8 6.9 6.9 6.8 7.0 7.1 7.1 7.6 8.0 7.8 7.9 7.9 7.8 7.7 7.6 7.3 7.2 7.0 7.2 7.1 7.2 7.4 7.3 7.3 7.2
6.5 6.4 6.5 6.5 6.5 6.3 6.2 5.8 5.6 5.6 5.6 6.0 7.2 7.2 5.9 5.3 4.8 4.9 4.7 5.4 5.5 5.9 6.5 6.9 6.9 6.5 6.4 6.6 6.8 6.7 6.6 7.1 7.2 7.6 7.5 7.5 7.6 8.1 8.0 8.1 8.3 7.8 7.6 7.4 7.4 7.0 7.0 7.0 7.1 7.0 7.0 6.9 6.9 6.7
6.2 6.4 6.3 6.3 6.1 6.0 5.7 5.5 6.1 6.8 7.1 7.2 7.3 6.8 5.7 5.4 4.9 4.9 6.0 5.7 5.5 6.6 6.7 6.9 6.8 6.6 6.5 6.3 6.2 6.5 7.0 7.4 7.2 7.6 7.7 7.8 7.1 8.0 8.4 8.6 8.2 8.0 7.6 7.5 7.3 7.2 7.1 7.0 6.9 6.8 6.7 6.6 6.5 6.3
6.4 6.4 6.4 6.5 6.6 7.1 7.5 7.7 7.5 7.3 7.4 7.5 7.6 6.6 5.6 5.1 5.1 5.4 6.0 5.2 6.1 6.3 6.7 6.3 6.7 6.6 6.5 6.4 6.3 6.5 6.3 6.9 6.6 7.5 7.6 7.4 7.9 8.5 8.5 8.6 8.2 7.8 7.7 7.6 7.5 7.4 7.1 7.0 6.9 6.8 6.6 6.5 6.3 6.2
6.9 6.8 6.9 7.5 7.5 7.5 7.5 7.6 7.6 7.6 7.5 7.4 7.5 6.1 5.2 4.9 5.8 5.2 5.3 6.1 5.8 6.2 6.5 6.6 6.5 6.7 6.7 6.7 6.7 6.9 6.0 6.4 6.7 7.2 7.4 7.1 7.8 8.3 8.4 8.2 8.2 8.1 7.9 7.7 7.7 7.5 7.3 7.1 7.0 6.9 6.6 6.4 6.3 6.2
7.2 7.3 7.5 7.4 7.4 7.5 7.6 7.6 7.5 7.5 7.3 7.1 5.9 4.7 4.6 4.7 5.3 5.8 5.5 6.2 6.4 6.3 6.3 6.0 6.2 6.1 6.1 6.4 6.7 6.8 6.7 6.9 6.3 6.3 7.1 6.3 7.0 7.9 7.9 7.8 8.0 8.0 7.9 7.7 7.6 7.5 7.3 7.2 7.0 6.8 6.6 6.4 6.3 6.3
7.5 7.5 7.6 7.6 7.6 7.5 7.5 7.6 7.5 7.2 7.2 6.5 5.4 4.6 4.6 4.7 5.2 5.5 5.9 6.3 6.2 6.4 5.7 6.2 6.1 5.9 6.3 6.5 6.2 6.3 6.8 7.2 7.0 7.0 7.1 6.3 6.6 7.4 7.3 7.7 7.8 7.9 7.9 7.7 7.6 7.6 7.3 7.1 6.7 6.5 6.4 6.4 6.4 6.1
6.5 6.9 7.2 7.5 7.4 7.5 7.7 7.7 7.4 7.2 6.7 5.9 4.8 5.0 5.0 5.4 5.4 6.4 6.0 5.8 6.5 6.0 6.1 6.2 6.0 6.1 6.2 6.3 6.7 6.8 6.7 6.6 6.8 6.7 6.5 6.7 7.0 7.0 7.1 7.5 7.8 7.8 7.7 7.6 7.5 7.5 7.2 6.9 6.6 6.5 6.5 6.4 6.0 5.8
5.5 5.5 6.1 6.7 6.8 6.8 7.0 7.1 6.7 6.3 5.7 5.2 5.3 5.3 4.5 5.2 5.4 5.9 5.9 6.0 6.2 6.2 6.1 6.5 6.7 6.8 6.9 6.8 6.9 7.0 7.0 7.0 7.0 7.3 7.4 7.3 7.2 7.5 7.3 7.4 7.5 7.6 7.7 7.5 7.4 7.2 7.0 6.8 6.8 6.7 6.4 6.0 5.8 5.7
5.8 5.8 6.0 5.8 5.8 5.8 6.1 5.7 5.3 5.1 5.0 6.0 5.6 5.5 5.3 5.7 5.7 5.6 5.7 6.1 6.1 6.2 6.7 6.8 7.0 7.3 7.1 7.1 7.2 7.1 6.9 7.0 7.1 7.3 7.3 7.2 7.1 7.2 7.4 7.5 7.9 7.9 7.7 7.4 7.2 7.0 7.0 6.9 6.4 6.0 5.9 5.8 5.6 5.3
5.6 5.9 6.2 5.7 5.5 5.6 4.9 4.9 5.3 6.2 6.5 5.9 6.2 6.5 6.1 5.6 6.1 6.2 6.3 6.3 6.1 6.4 6.8 6.7 7.1 7.1 7.4 7.2 7.0 6.8 6.7 6.7 6.9 6.8 6.9 6.8 7.2 7.5 7.6 7.7 7.7 7.7 7.4 7.1 7.2 7.2 6.7 6.2 5.8 5.7 5.6 5.4 5.2 5.1
6.0 5.7 6.0 6.2 6.3 6.1 6.5 6.5 6.0 6.8 6.8 6.4 6.2 6.3 6.2 6.4 6.5 6.3 6.4 6.7 6.6 6.6 6.7 6.8 6.8 6.8 6.7 6.6 6.2 6.5 6.5 6.4 6.3 6.4 6.3 7.1 7.5 7.6 7.3 6.9 6.9 6.8 6.7 6.7 6.6 6.3 6.0 5.7 5.5 5.2 5.1 5.1 4.9 4.8
6.2 6.1 6.1 6.0 6.2 6.3 6.9 6.9 6.2 6.4 6.3 6.5 6.4 6.5 6.3 6.5 6.2 6.6 7.0 7.1 6.9 6.8 6.7 6.7 6.7 6.2 6.1 6.1 6.1 5.8 5.6 6.2 6.2 6.3 6.8 7.3 7.3 6.8 6.3 6.5 7.0 6.3 6.2 6.2 5.8 5.5 5.5 5.2 5.1 5.1 5.0 4.7 4.6 4.6
6.0 6.2 6.2 6.3 6.2 6.3 6.2 6.4 6.4 6.4 6.3 6.4 6.3 6.5 6.7 6.9 7.0 7.0 7.1 7.2 7.1 7.0 6.8 6.5 6.3 6.2 6.0 6.0 5.9 5.8 6.0 5.9 6.3 6.7 7.1 7.1 7.1 7.0 7.1 6.4 6.0 6.0 5.9 5.8 5.4 5.3 5.1 4.9 5.0 4.9 4.9 4.7 4.4 4.5
6.3 6.3 6.0 6.0 6.1 5.9 6.0 6.2 6.4 6.4 6.7 6.7 6.7 6.6 7.0 7.4 7.2 7.1 7.2 7.3 7.2 7.0 6.8 6.4 6.2 6.4 6.4 6.7 6.5 6.6 6.4 6.7 6.8 7.2 7.0 6.8 6.7 6.4 6.5 6.6 6.5 5.9 5.3 5.2 5.1 5.0 5.0 5.0 5.0 4.8 4.6 4.4 4.4 4.3
6.3 6.4 6.5 6.1 6.1 6.1 6.2 6.2 6.3 6.4 6.7 6.5 6.7 6.8 7.1 6.9 7.0 7.0 7.1 7.2 7.0 6.9 6.5 6.5 6.6 6.8 6.5 6.6 6.6 6.7 6.8 7.0 6.9 6.8 6.8 6.7 6.5 6.3 6.2 5.7 5.4 5.2 5.2 5.2 5.0 5.0 5.1 5.0 4.8 4.6 4.5 4.3 4.2 4.3
6.2 6.1 6.2 6.2 6.2 6.4 6.3 6.4 6.5 6.5 6.5 6.4 6.3 6.4 6.5 6.7 6.6 6.4 6.6 6.7 6.5 6.6 6.5 6.5 6.5 6.3 6.1 6.0 6.1 6.5 6.5 6.5 6.4 6.3 6.4 6.3 6.1 5.7 5.3 5.2 5.1 5.1 5.1 5.1 5.1 5.0 4.9 4.7 4.5 4.5 4.4 4.3 4.4 4.6
6.1 5.9 6.0 6.2 6.2 6.3 6.3 6.1 6.3 6.0 5.5 5.6 5.7 6.1 6.1 6.2 6.2 6.2 6.3 6.2 6.0 6.1 6.0 6.1 6.0 6.0 6.0 5.9 5.8 6.0 6.1 6.1 6.1 5.9 5.7 5.4 5.1 5.0 5.0 5.0 5.0 5.0 5.0 5.0 4.9 4.8 4.7 4.6 4.5 4.5 4.5 4.6 4.8 5.0
6.5 6.4 6.3 6.3 6.1 6.0 6.1 5.9 6.1 5.9 5.2 5.2 5.3 5.3 5.6 5.7 5.7 5.8 5.6 5.7 5.7 5.9 5.9 5.8 5.3 5.0 5.1 5.1 5.3 5.3 5.3 5.3 5.3 5.3 5.2 5.0 4.9 4.9 4.9 4.9 4.8 4.8 4.7 4.7 4.7 4.7 4.6 4.5 4.6 4.7 4.7 4.8 4.9 4.8
6.1 6.2 6.4 6.3 6.1 6.4 6.4 5.9 5.8 5.0 4.8 5.0 5.1 5.4 5.4 5.2 5.4 5.6 5.6 5.6 5.6 5.7 5.0 4.5 4.4 4.5 4.6 4.8 4.9 4.9 4.9 4.8 4.8 4.8 4.9 4.9 4.9 4.9 4.9 4.8 4.7 4.7 4.7 4.6 4.6 4.7 4.8 4.8 4.8 4.9 4.9 4.7 4.6 4.7
6.4 6.2 6.1 6.1 6.1 6.1 5.6 5.5 5.4 5.1 4.8 4.5 4.8 5.0 4.8 4.9 5.1 5.2 5.2 5.4 5.0 3.9 4.0 4.0 4.2 4.4 4.6 4.7 4.7 4.8 4.8 4.7 4.7 4.7 4.7 4.6 4.6 4.6 4.5 4.5 4.5 4.5 4.7 5.0 5.1 5.0 5.0 5.0 4.9 4.9 4.8 4.9 5.0 5.3
6.7 6.5 6.5 6.2 5.9 5.2 4.7 4.8 4.7 4.6 4.5 4.6 4.7 4.6 4.5 4.5 4.5 4.7 4.5 4.0 3.8 3.9 3.9 4.0 4.1 4.3 4.5 4.6 4.7 4.7 4.6 4.6 4.6 4.6 4.5 4.5 4.5 4.5 4.5 4.8 5.0 5.2 5.2 5.1 5.0 5.0 5.0 5.0 4.9 4.9 5.1 5.3 5.6 5.8
7.4 7.2 7.0 6.5 5.6 5.1 4.9 4.9 4.9 4.7 4.6 4.8 4.7 4.3 4.3 4.3 4.4 4.5 4.1 3.8 3.7 3.6 3.9 4.2 4.2 4.3 4.2 4.2 4.3 4.4 4.5 4.5 4.5 4.4 4.5 4.6 4.8 5.0 5.2 5.2 5.1 5.0 5.0 4.9 4.9 4.9 5.0 5.1 5.2 5.4 5.7 6.0 6.1 6.2
7.7 7.5 7.1 6.7 6.1 5.8 5.4 5.2 5.1 5.1 5.0 5.0 4.9 4.5 4.2 4.3 4.5 3.7 3.6 3.6 3.6 3.6 3.9 4.1 4.3 4.4 4.5 4.5 4.5 4.4 4.4 4.5 4.7 5.0 5.2 5.3 5.2 5.0 4.9 4.8 4.8 4.8 4.8 4.9 5.0 5.2 5.4 5.6 5.9 6.1 6.1 6.1 6.0 5.8
7.7 6.9 6.7 6.6 6.4 6.5 6.2 5.9 5.5 5.3 5.3 5.4 5.0 4.6 4.7 5.0 4.7 4.0 3.9 4.0 4.1 4.2 4.3 4.5 4.6 4.8 4.9 5.1 5.2 5.3 5.4 5.3 5.2 5.1 4.9 4.9 4.8 4.8 4.8 4.8 4.8 4.9 5.1 5.4 5.7 5.8 6.0 6.0 6.0 5.9 5.8 5.7 5.6 5.6
6.4 5.8 6.0 6.2 6.4 6.4 6.2 6.1 6.0 5.9 5.9 5.3 5.3 5.4 5.9 5.7 5.2 4.7 4.9 5.1 5.1 5.2 5.2 5.2 5.2 5.2 5.1 5.0 4.9 4.8 4.7 4.7 4.6 4.6 4.7 4.7 4.8 5.0 5.2 5.3 5.5 5.7 5.8 5.9 5.9 5.8 5.7 5.7 5.6 5.5 5.4 5.3 5.2 5.1
5.8 5.4 6.0 5.8 6.0 5.9 6.0 6.0 6.1 5.8 5.5 5.5 5.5 5.5 5.5 5.5 5.1 5.1 5.0 4.9 4.8 4.8 4.7 4.7 4.7 4.7 4.8 4.8 4.8 4.9 4.9 4.9 5.0 5.2 5.3 5.5 5.6 5.7 5.7 5.6 5.5 5.4 5.3 5.3 5.3 5.3 5.3 5.3 5.2 5.1 5.0 5.0 4.9 4.9
6.1 6.1 6.2 6.2 6.3 6.4 6.3 6.1 5.8 5.7 5.6 5.7 5.8 5.8 5.7 5.6 5.4 5.2 5.1 5.1 5.0 5.0 5.0 5.1 5.2 5.3 5.4 5.6 5.7 5.8 5.9 5.9 5.8 5.8 5.7 5.6 5.4 5.4 5.4 5.4 5.4 5.5 5.4 5.4 5.3 5.2 5.1 5.0 5.0 5.0 5.0 5.0 5.0 5.1
6.3 6.4 6.6 6.4 6.7 6.3 6.0 5.9 5.9 5.9 5.9 6.0 6.0 6.0 5.9 5.8 5.7 5.6 5.6 5.5 5.6 5.8 6.0 6.0 6.0 6.1 6.1 6.0 5.9 5.8 5.7 5.6 5.5 5.4 5.4 5.3 5.3 5.3 5.3 5.3 5.2 5.1 5.0 5.0 4.9 4.9 5.0 5.1 5.1 5.2 5.2 5.1 5.1 5.1
6.8 6.7 6.9 6.9 6.8 6.4 6.3 6.2 6.2 6.3 6.3 6.4 6.5 6.5 6.5 6.6 6.6 6.6 6.4 6.2 6.2 6.2 6.2 6.1 6.0 5.8 5.7 5.5 5.4 5.2 5.2 5.1 5.1 5.2 5.3 5.4 5.4 5.2 5.1 5.1 5.1 5.1 5.2 5.3 5.5 5.6 5.7 5.7 5.6 5.6 5.5 5.3 5.1 5.1
7.2 7.1 7.0 7.1 6.8 6.7 6.7 6.7 6.5 6.6 6.6 6.6 6.6 6.5 6.4 6.4 6.3 6.3 6.2 6.1 6.0 5.9 5.8 5.7 5.6 5.5 5.4 5.4 5.4 5.4 5.5 5.5 5.4 5.2 5.2 5.1 5.1 5.2 5.4 5.4 5.5 5.5 5.5 5.5 5.5 5.5 5.5 5.5 5.5 5.4 5.3 5.1 5.0 4.9
7.1 6.9 6.8 6.8 6.7 6.5 6.3 6.3 6.4 6.4 6.3 6.3 6.3 6.2 6.1 6.1 6.1 6.0 5.9 5.9 5.8 5.7 5.6 5.6 5.6 5.6 5.5 5.5 5.5 5.4 5.4 5.3 5.3 5.5 5.6 5.6 5.5 5.4 5.3 5.3 5.2 5.2 5.2 5.3 5.4 5.4 5.4 5.3 5.2 5.1 5.0 4.9 4.8 4.7
Wind_Speed
36 36 37 37 37 36 35 34 32 30 29 28 27 26 25 29 32 16 8 6 3 3 5 4 4 7 14 15 6 4 4 3 3 3 3 4 3 6 4 7 8 7 6 3 3 3 6 6 2 7 6 3 6 5
34 34 35 35 35 33 31 30 28 25 27 26 26 25 25 29 30 21 3 5 5 2 4 1 7 7 10 18 8 4 5 5 5 4 2 2 1 2 5 3 2 2 7 7 8 6 4 3 4 3 5 7 4 7
30 31 31 29 28 28 27 26 23 24 20 30 28 22 24 25 25 15 4 4 1 4 5 3 4 4 4 4 8 5 1 5 4 5 5 3 3 4 4 4 4 2 4 4 4 2 3 4 4 5 5 8 5 5
25 25 25 25 25 25 23 22 22 22 21 26 26 24 23 23 26 13 6 3 4 3 2 3 3 3 6 2 3 5 8 6 6 3 3 3 4 3 4 4 5 5 7 6 4 3 8 5 3 8 10 10 13 12
20 21 21 21 21 22 23 22 23 24 25 26 25 21 21 21 24 7 5 8 2 3 3 3 5 5 5 2 11 11 11 7 1 3 3 3 2 4 1 3 1 3 6 5 5 12 5 4 5 9 12 10 10 16
21 22 22 23 23 23 22 22 21 22 24 23 21 20 20 22 23 6 2 5 7 1 3 2 3 6 7 8 13 13 5 4 3 3 2 3 4 2 4 3 2 2 1 5 6 7 12 11 9 9 14 12 12 15
17 18 18 18 18 18 19 19 20 22 22 21 18 20 21 23 10 4 4 1 16 5 1 3 2 3 2 4 3 2 5 4 3 3 3 2 4 2 3 3 5 4 11 15 18 18 11 1 7 10 15 13 15 13
15 15 16 15 15 16 16 18 20 21 20 19 17 17 18 17 5 1 1 6 11 4 2 2 3 2 5 3 3 2 3 3 4 2 3 1 4 2 2 3 7 8 12 11 6 9 13 15 13 13 13 14 15 11
14 14 16 18 19 19 18 19 20 21 21 20 20 18 7 2 3 3 8 10 1 4 3 2 3 2 3 3 2 3 2 3 1 3 3 4 1 3 4 12 12 13 6 13 14 18 15 15 14 12 13 11 15 11
14 18 19 18 18 19 19 18 20 19 18 20 7 4 3 3 18 12 4 2 3 2 1 2 1 3 3 2 2 2 2 2 3 3 1 3 2 1 1 4 7 13 18 18 19 10 13 13 12 12 10 10 10 10
17 17 17 15 11 11 14 16 15 12 14 4 5 2 4 4 4 2 2 3 2 1 1 2 3 3 3 4 3 1 2 1 3 2 4 2 2 3 3 6 10 14 14 6 10 13 11 14 14 14 13 11 11 10
16 16 15 16 16 16 18 18 21 10 6 4 5 5 2 3 2 4 2 2 2 3 1 3 2 3 2 3 3 2 3 2 3 2 3 2 1 7 7 7 8 11 12 12 15 17 16 15 14 14 13 11 10 11
18 17 20 20 21 23 26 27 30 18 10 3 3 5 3 1 3 4 4 0 3 2 1 2 2 3 2 4 3 3 3 2 2 2 3 3 5 8 9 9 11 11 14 16 17 17 17 15 14 15 13 10 11 11
30 28 21 17 19 22 26 32 25 3 3 3 4 5 2 3 3 1 1 2 1 2 4 5 3 3 2 3 2 2 2 2 2 2 4 4 11 10 9 10 14 12 12 15 15 15 16 15 13 11 10 9 10 10
25 24 25 18 14 14 11 4 7 4 3 4 3 5 4 1 2 1 1 1 2 2 3 3 3 3 2 3 2 2 2 1 4 3 2 5 10 12 12 12 12 11 11 12 12 13 14 13 13 12 9 8 9 8
11 15 9 13 15 8 6 7 4 2 3 4 7 3 1 4 3 2 3 2 4 2 2 3 3 3 2 3 2 1 5 4 2 1 3 9 12 12 12 12 11 11 12 12 11 12 12 11 11 11 9 8 6 7
16 5 15 9 4 11 11 4 4 6 4 5 4 4 3 4 3 2 3 3 3 2 2 3 4 1 2 3 2 3 2 2 1 2 5 11 12 12 12 13 12 12 12 12 12 11 11 10 10 9 10 8 7 8
4 4 10 6 5 7 3 5 4 4 6 4 3 3 2 4 2 2 2 2 2 2 2 2 2 5 4 2 2 1 1 3 5 6 8 11 13 12 11 13 12 12 12 11 10 11 10 9 8 5 8 8 7 7
8 10 11 12 8 5 4 4 3 4 4 1 2 2 2 3 5 4 5 6 4 4 3 3 5 3 3 2 2 2 3 3 6 7 8 10 11 12 12 12 11 11 11 10 9 7 7 8 6 5 4 4 4 3
8 17 16 14 7 3 4 3 2 4 3 2 2 5 3 3 3 6 8 7 5 3 5 4 3 3 2 3 3 4 4 4 8 9 7 7 8 11 10 9 8 11 9 10 9 9 7 6 5 4 4 3 3 1
10 8 13 8 4 6 4 2 3 2 3 3 1 2 4 7 9 7 7 6 6 4 4 4 5 6 8 8 6 5 7 7 7 6 7 8 6 8 8 7 8 7 7 6 6 6 6 5 4 3 3 2 1 1
3 9 3 6 4 4 4 5 3 2 2 2 2 3 3 4 5 6 5 7 4 5 4 4 7 7 11 13 10 11 10 13 12 10 11 9 7 7 7 6 7 7 6 6 5 5 4 3 3 3 2 2 2 3
5 6 4 6 6 6 2 2 4 3 3 2 2 3 3 2 3 2 4 5 4 5 6 5 8 11 11 13 15 16 13 12 9 9 9 8 8 8 8 8 6 7 6 5 5 4 3 3 3 3 3 3 3 3
6 4 5 4 5 2 3 4 2 2 3 3 3 3 2 3 2 4 4 3 4 8 9 10 6 7 9 13 10 9 9 8 9 9 7 7 8 7 7 7 7 7 6 5 5 4 4 3 4 3 3 2 3 1
7 8 5 6 4 5 5 4 5 4 4 4 3 3 2 3 3 4 3 3 5 7 7 7 8 8 7 7 7 8 11 7 7 8 7 6 7 6 6 7 7 7 5 5 5 4 4 3 4 4 4 3 5 5
8 5 4 5 3 4 2 2 3 4 3 3 2 1 3 3 4 4 3 3 3 5 6 6 5 6 8 7 6 6 6 5 7 8 7 7 6 4 4 4 3 4 4 3 2 3 3 3 3 5 4 5 4 4
6 5 3 2 2 2 4 4 4 5 5 5 3 4 4 5 4 3 2 3 2 3 5 6 6 6 6 6 6 6 6 7 8 7 6 7 7 6 4 3 4 0 1 3 3 2 1 2 2 3 3 3 3 3
3 4 5 6 4 4 4 4 5 5 3 4 3 6 4 3 3 2 2 3 3 5 5 6 7 6 6 6 5 4 4 3 6 7 7 7 7 6 5 3 3 4 2 1 1 1 1 3 3 3 3 4 4 4
3 4 4 7 5 5 5 4 3 3 5 2 3 3 3 3 4 3 3 4 5 5 5 5 5 5 6 6 7 7 6 5 4 6 6 3 4 4 5 4 4 3 3 3 6 4 4 1 2 2 4 3 4 3
5 2 4 4 5 5 4 3 4 4 5 3 4 8 5 3 4 5 5 5 6 6 5 5 4 4 4 4 3 6 4 4 4 4 3 1 2 3 2 3 3 4 5 3 4 4 6 5 5 4 4 4 3 3
2 4 5 4 4 2 5 7 10 8 4 5 5 6 4 3 3 6 7 5 5 4 5 5 5 3 4 4 3 3 3 3 3 3 3 2 1 2 2 2 5 6 3 3 3 3 3 3 3 4 5 6 5 3
4 3 4 3 3 5 4 2 3 4 2 3 2 2 3 3 3 3 3 2 4 4 3 3 4 2 1 1 2 2 4 2 3 2 2 0 1 3 6 9 9 7 3 4 3 3 4 4 3 5 5 7 6 6
4 4 5 3 3 1 2 4 3 3 4 2 2 2 2 3 3 2 1 4 3 2 0 2 2 1 3 5 4 2 5 6 9 11 6 5 4 7 8 8 7 4 3 3 3 3 4 4 4 5 5 5 5 4
Wind_Direction
120 126 133 140 146 150 154 161 167 173 177 178 178 184 184 209 198 178 184 141 134 272 307 319 180 170 197 207 178 167 88 345 73 100 140 216 144 202 118 168 176 153 139 164 103 71 280 197 122 162 194 111 136 110
110 121 128 134 142 148 154 160 166 174 177 183 183 188 199 180 174 180 147 156 246 288 261 277 260 266 237 194 154 193 170 154 166 108 100 14 305 78 141 212 135 119 173 175 176 208 239 318 155 91 127 126 124 119
109 119 130 140 143 146 152 159 166 171 191 174 170 173 154 167 172 169 102 151 155 283 290 256 228 298 333 183 156 133 294 158 173 177 155 172 245 132 144 231 116 132 144 130 115 67 104 82 68 86 111 110 98 107
109 118 127 134 139 145 153 155 159 156 154 150 157 159 164 168 166 149 150 177 204 267 214 290 284 290 296 229 121 131 130 66 88 66 92 139 177 182 204 170 141 196 136 135 77 47 86 24 87 114 95 96 85 60
115 127 136 141 147 147 150 153 153 155 147 145 151 147 148 156 158 104 105 207 279 329 301 275 289 339 342 322 104 106 106 96 107 87 72 216 226 131 350 74 186 189 165 156 200 182 136 143 114 124 103 101 101 104
101 105 107 110 115 121 126 129 131 131 137 143 143 143 144 136 139 145 136 219 219 171 313 335 312 355 9 78 80 74 118 102 81 104 65 337 287 117 107 163 285 303 121 163 143 94 102 102 93 112 105 103 99 99
102 104 107 110 114 115 120 126 129 137 144 143 137 134 144 152 161 163 147 237 160 116 306 303 346 254 283 58 45 43 39 63 120 130 132 279 271 45 95 156 172 95 104 110 117 112 96 168 127 106 106 106 100 93
116 119 120 124 126 125 127 129 132 134 139 140 134 136 153 164 118 281 216 134 134 157 250 172 246 88 8 60 89 348 71 42 16 147 57 154 307 73 34 135 122 112 108 107 74 83 111 118 112 108 112 115 102 93
141 136 137 136 132 128 131 133 131 133 140 142 141 137 139 206 162 201 54 128 137 222 186 113 122 178 20 66 78 46 65 84 349 137 199 155 321 197 205 163 151 146 142 127 104 108 116 117 122 122 119 111 108 105
143 145 140 135 133 134 131 129 128 128 133 129 120 194 162 172 121 84 352 348 2 345 284 114 99 114 79 65 52 90 14 124 139 237 97 80 199 241 45 118 133 126 126 125 113 118 124 125 130 128 118 114 111 110
154 146 150 142 157 162 149 133 138 110 132 192 199 100 87 98 63 93 239 216 203 36 357 102 110 120 16 114 129 80 137 79 122 226 142 146 198 216 117 92 127 135 142 133 127 127 129 130 130 121 112 106 105 105
179 168 174 169 175 194 179 158 147 188 179 201 115 110 108 82 116 178 211 329 69 166 312 104 95 106 47 77 91 1 113 89 163 156 103 183 223 127 109 89 100 129 129 123 122 120 118 119 118 114 113 109 105 103
107 142 158 167 157 154 161 170 179 207 148 180 63 59 70 6 105 159 194 255 141 174 173 115 77 103 61 52 60 69 70 186 81 63 200 204 121 112 110 102 84 91 102 107 111 107 106 106 108 116 113 107 108 101
70 73 92 117 140 149 157 166 183 225 87 87 125 107 137 122 89 107 136 92 253 117 103 100 76 85 87 73 96 97 245 109 86 139 219 168 142 133 123 112 112 103 104 109 110 108 108 108 102 100 104 109 111 109
71 61 54 51 76 97 137 137 67 55 69 65 56 63 50 118 80 13 264 79 342 111 82 72 62 83 68 100 129 194 111 118 191 230 158 132 128 124 114 117 114 111 109 105 109 108 107 109 109 106 104 107 111 113
55 74 39 40 53 95 130 83 39 70 51 45 35 56 294 72 44 34 14 46 6 36 51 62 93 82 94 125 145 150 139 193 178 171 125 121 119 123 122 119 113 112 112 112 112 113 112 113 118 116 111 112 116 124
53 35 333 0 355 86 79 96 44 46 51 35 20 8 4 56 51 22 13 1 317 70 77 82 75 95 123 79 69 15 61 5 349 57 101 118 121 121 111 107 112 115 114 114 114 113 111 110 115 118 124 130 128 130
48 318 7 7 16 50 43 36 64 62 63 30 50 347 19 25 24 18 332 320 15 79 77 88 104 50 34 48 54 84 53 51 63 86 101 108 107 107 108 110 110 111 109 107 110 114 121 116 113 107 126 127 112 120
50 28 21 42 67 85 65 34 39 85 66 44 27 354 39 42 29 24 20 12 40 38 61 38 48 33 8 6 30 55 38 65 93 83 82 84 92 99 101 103 104 104 101 103 101 98 96 94 94 90 89 95 96 103
35 28 13 23 53 79 74 40 43 73 66 61 28 41 46 31 2 35 38 25 37 58 51 45 21 332 309 346 50 77 70 92 105 94 81 80 90 93 92 100 105 106 101 98 93 95 96 85 72 77 83 92 99 81
25 346 7 24 48 56 76 50 63 71 88 74 1 49 77 57 43 38 31 352 48 36 62 31 23 28 39 45 41 67 64 72 78 91 103 94 84 92 95 92 94 94 97 98 96 84 75 81 74 87 84 69 38 265
337 11 43 23 69 58 62 18 83 84 77 96 65 54 70 67 52 41 37 39 54 24 23 38 32 34 43 39 41 52 70 78 76 75 69 78 83 78 74 74 83 79 74 82 95 98 94 80 71 69 59 11 25 48
11 34 37 30 64 48 358 8 55 30 79 65 47 62 54 60 69 66 67 32 39 357 5 52 50 45 50 41 50 46 50 70 71 70 71 73 71 68 73 70 71 84 84 76 88 92 91 68 46 59 46 35 27 24
27 50 43 42 50 73 12 25 37 49 54 53 54 63 43 89 95 68 68 51 1 359 21 28 38 55 51 46 42 41 44 62 71 64 62 77 78 68 67 66 57 54 61 66 63 58 53 50 47 47 34 27 8 345
63 357 57 3 352 49 40 22 12 50 59 36 61 46 34 54 66 62 58 32 10 7 5 32 41 44 59 57 45 42 39 53 70 69 37 69 89 89 79 71 61 49 40 57 47 51 37 31 32 29 25 25 358 335
68 351 42 7 353 60 44 53 34 28 84 61 70 63 63 68 64 57 52 13 16 4 4 24 46 59 54 44 49 36 30 46 71 71 43 38 43 81 94 89 79 60 33 59 71 55 32 22 30 22 3 355 359 16
49 12 342 347 324 20 48 51 38 55 37 29 9 36 66 65 67 76 97 17 39 20 30 38 52 60 62 56 50 44 46 54 69 81 81 66 60 57 74 88 75 56 24 67 74 102 68 342 317 309 309 313 288 278
47 39 18 342 44 19 66 48 36 28 3 345 59 40 82 84 72 41 50 106 78 71 63 57 55 59 59 47 34 27 22 42 90 94 89 67 56 43 23 31 31 20 25 62 239 256 235 253 259 273 267 271 288 289
29 344 55 16 43 43 34 42 21 25 346 22 90 81 86 55 6 44 37 56 70 73 73 80 74 72 66 58 48 41 39 37 77 66 59 23 4 355 3 19 11 2 6 354 335 335 320 308 308 264 267 255 270 292
346 1 80 46 59 50 12 43 59 25 31 78 94 101 80 64 29 24 44 59 65 69 61 59 47 56 63 76 57 47 21 51 71 112 116 53 270 289 345 3 349 341 345 358 352 329 335 2 345 352 351 334 344 344
343 36 53 51 71 57 122 104 74 56 45 60 51 89 93 114 62 34 36 49 68 63 69 57 45 30 71 54 80 74 26 342 52 97 142 170 226 336 327 307 336 357 360 4 356 346 348 348 341 331 321 315 291 275
23 30 111 76 100 158 187 76 70 84 54 65 44 70 36 59 59 3 338 50 58 54 31 90 77 354 253 93 72 81 87 21 354 317 257 160 305 294 315 333 343 358 12 4 356 356 4 9 355 359 355 348 337 324
31 26 31 58 81 153 266 98 54 76 37 60 60 123 93 121 127 198 95 62 124 143 105 289 294 326 92 99 99 64 35 20 15 19 41 67 354 337 337 330 327 332 338 327 337 355 5 360 347 346 356 357 348 339